| time (UTC) | temp C | wind direction | speed KPH | gust KPH | rain 1hr cm | rain 24hr cm | rain mn cm | humidity % | barometer mb |
| 20260510225014 | 13 | 45 | 0.0 | 1.6 | 0.00 | 1.50 | 0.10 | 83 | 1002.7 |
| 20260510224115 | 13 | 45 | 0.0 | 0.0 | 0.00 | 1.52 | 0.10 | 83 | 1002.6 |
| 20260510223215 | 13 | 45 | 0.0 | 1.6 | 0.00 | 1.50 | 0.03 | 82 | 1002.6 |
| 20260510222315 | 13 | 45 | 0.0 | 1.6 | 0.00 | 1.52 | 0.00 | 82 | 1002.8 |
| 20260510221414 | 13 | 45 | 0.0 | 0.0 | 0.00 | 1.60 | 0.00 | 82 | 1002.5 |
| 20260510220514 | 13 | 45 | 0.0 | 3.2 | 0.00 | 1.75 | 0.00 | 81 | 1002.5 |
| 20260510215614 | 13 | 45 | 0.0 | 0.0 | 0.03 | 1.93 | 1.85 | 81 | 1002.6 |
| 20260510214715 | 13 | 45 | 0.0 | 1.6 | 0.03 | 2.03 | 1.85 | 81 | 1002.7 |
| 20260510213815 | 13 | 45 | 0.0 | 1.6 | 0.03 | 2.16 | 1.85 | 81 | 1002.6 |
| 20260510212914 | 13 | 45 | 0.0 | 1.6 | 0.03 | 2.21 | 1.85 | 81 | 1002.2 |
| 20260510212014 | 13 | 45 | 0.0 | 0.0 | 0.05 | 2.21 | 1.85 | 80 | 1002.4 |
| 20260510211114 | 13 | 45 | 0.0 | 1.6 | 0.05 | 2.21 | 1.85 | 80 | 1002.4 |
| 20260510210214 | 13 | 45 | 0.0 | 3.2 | 0.03 | 2.18 | 1.83 | 79 | 1002.4 |
| 20260510205314 | 13 | 45 | 1.6 | 1.6 | 0.03 | 2.18 | 1.83 | 78 | 1002.2 |
| 20260510204414 | 14 | 45 | 1.6 | 3.2 | 0.03 | 2.18 | 1.83 | 78 | 1002.1 |
| 20260510203514 | 14 | 90 | 1.6 | 3.2 | 0.03 | 2.18 | 1.83 | 78 | 1001.7 |
| 20260510202614 | 14 | 90 | 0.0 | 1.6 | 0.03 | 2.18 | 1.83 | 78 | 1001.7 |
| 20260510201714 | 14 | 135 | 1.6 | 3.2 | 0.00 | 2.16 | 1.80 | 78 | 1001.5 |
| 20260510200815 | 14 | 90 | 1.6 | 3.2 | 0.00 | 2.16 | 1.80 | 78 | 1001.5 |
| 20260510195914 | 14 | 77 | 1.6 | 3.2 | 0.00 | 2.16 | 1.80 | 79 | 1001.1 |
| 20260510195014 | 14 | 95 | 1.6 | 4.8 | 0.00 | 2.16 | 1.80 | 79 | 1001.0 |
| 20260510194114 | 14 | 180 | 0.0 | 3.2 | 0.00 | 2.16 | 1.80 | 79 | 1001.0 |
| 20260510193215 | 14 | 55 | 0.0 | 3.2 | 0.00 | 2.16 | 1.80 | 78 | 1001.0 |
| 20260510192315 | 14 | 92 | 1.6 | 3.2 | 0.00 | 2.16 | 1.80 | 77 | 1001.0 |
| 20260510191414 | 15 | 110 | 0.0 | 1.6 | 0.00 | 2.16 | 1.80 | 77 | 1001.0 |
| 20260510190514 | 15 | 135 | 0.0 | 1.6 | 0.00 | 2.16 | 1.80 | 75 | 1001.2 |
| 20260510185615 | 15 | 90 | 0.0 | 1.6 | 0.00 | 2.16 | 1.80 | 73 | 1001.2 |
| 20260510184714 | 15 | 90 | 0.0 | 1.6 | 0.00 | 2.16 | 1.80 | 72 | 1001.1 |
| 20260510183814 | 15 | 93 | 1.6 | 3.2 | 0.00 | 2.16 | 1.80 | 70 | 1001.2 |
| 20260510182914 | 16 | 78 | 3.2 | 4.8 | 0.00 | 2.16 | 1.80 | 68 | 1001.2 |
| 20260510182015 | 16 | 119 | 1.6 | 1.6 | 0.00 | 2.16 | 1.80 | 65 | 1001.0 |
| 20260510181114 | 16 | 114 | 1.6 | 1.6 | 0.00 | 2.16 | 1.80 | 63 | 1001.0 |
| 20260510180215 | 16 | 99 | 1.6 | 4.8 | 0.00 | 2.16 | 1.80 | 61 | 1001.2 |
| 20260510175315 | 16 | 112 | 1.6 | 3.2 | 0.00 | 2.16 | 1.80 | 61 | 1001.1 |
| 20260510174414 | 17 | 90 | 1.6 | 3.2 | 0.00 | 2.16 | 1.80 | 60 | 1001.2 |
| 20260510173514 | 17 | 133 | 0.0 | 3.2 | 0.00 | 2.16 | 1.80 | 59 | 1001.2 |
| 20260510172614 | 17 | 128 | 0.0 | 3.2 | 0.00 | 2.16 | 1.80 | 58 | 1001.3 |
| 20260510171713 | 17 | 108 | 0.0 | 1.6 | 0.00 | 2.16 | 1.80 | 56 | 1001.3 |
| 20260510170814 | 17 | 114 | 1.6 | 4.8 | 0.00 | 2.16 | 1.80 | 56 | 1001.1 |
| 20260510165914 | 17 | 90 | 0.0 | 1.6 | 0.00 | 2.16 | 1.80 | 55 | 1001.2 |
| 20260510165013 | 17 | 130 | 1.6 | 4.8 | 0.00 | 2.16 | 1.80 | 54 | 1001.1 |
| 20260510164114 | 17 | 135 | 1.6 | 3.2 | 0.00 | 2.16 | 1.80 | 54 | 1001.3 |
| 20260510163215 | 17 | 174 | 3.2 | 4.8 | 0.00 | 2.16 | 1.80 | 53 | 1001.3 |
| 20260510162314 | 17 | 135 | 4.8 | 8.0 | 0.00 | 2.16 | 1.80 | 49 | 1001.2 |
| 20260510161414 | 17 | 90 | 4.8 | 4.8 | 0.00 | 2.16 | 1.80 | 50 | 1001.2 |
| 20260510160514 | 17 | 120 | 3.2 | 8.0 | 0.00 | 2.16 | 1.80 | 50 | 1001.3 |
| 20260510155615 | 17 | 119 | 3.2 | 9.7 | 0.00 | 2.16 | 1.80 | 51 | 1001.1 |
| 20260510154714 | 17 | 100 | 8.0 | 11.3 | 0.00 | 2.16 | 1.80 | 50 | 1001.2 |
| 20260510153813 | 17 | 135 | 3.2 | 11.3 | 0.00 | 2.16 | 1.80 | 54 | 1001.2 |
| 20260510152914 | 17 | 68 | 4.8 | 9.7 | 0.00 | 2.18 | 1.80 | 54 | 1001.2 |
| 20260510152015 | 17 | 97 | 1.6 | 4.8 | 0.00 | 2.18 | 1.80 | 57 | 1001.4 |
| 20260510151115 | 17 | 125 | 4.8 | 4.8 | 0.00 | 2.18 | 1.80 | 59 | 1001.2 |
| 20260510150214 | 17 | 91 | 3.2 | 8.0 | 0.00 | 2.18 | 1.80 | 58 | 1001.3 |
| 20260510145315 | 17 | 104 | 3.2 | 9.7 | 0.00 | 2.18 | 1.80 | 53 | 1001.4 |
| 20260510144414 | 18 | 178 | 3.2 | 8.0 | 0.00 | 2.34 | 1.80 | 52 | 1001.3 |
| 20260510143515 | 18 | 103 | 3.2 | 4.8 | 0.00 | 2.34 | 1.80 | 52 | 1001.4 |
| 20260510142614 | 18 | 117 | 3.2 | 8.0 | 0.00 | 2.34 | 1.80 | 51 | 1001.3 |
| 20260510141714 | 18 | 106 | 4.8 | 11.3 | 0.00 | 2.34 | 1.80 | 52 | 1001.5 |
| 20260510140814 | 17 | 90 | 4.8 | 9.7 | 0.00 | 2.34 | 1.80 | 51 | 1001.5 |
| 20260510135915 | 18 | 132 | 4.8 | 9.7 | 0.00 | 2.34 | 1.80 | 52 | 1001.4 |
| 20260510135013 | 18 | 180 | 3.2 | 12.9 | 0.00 | 2.36 | 1.80 | 51 | 1001.6 |
| 20260510134115 | 18 | 135 | 3.2 | 9.7 | 0.00 | 2.36 | 1.80 | 51 | 1001.5 |
| 20260510133214 | 18 | 70 | 4.8 | 9.7 | 0.00 | 2.36 | 1.80 | 55 | 1001.7 |
| 20260510132314 | 17 | 90 | 4.8 | 9.7 | 0.00 | 2.36 | 1.80 | 56 | 1001.7 |
| 20260510131415 | 17 | 135 | 4.8 | 9.7 | 0.00 | 2.36 | 1.80 | 54 | 1001.9 |
| 20260510130514 | 17 | 179 | 8.0 | 14.5 | 0.00 | 2.39 | 1.80 | 56 | 1001.7 |
| 20260510125614 | 17 | 180 | 3.2 | 9.7 | 0.00 | 2.62 | 1.80 | 53 | 1001.8 |
| 20260510124714 | 17 | 197 | 8.0 | 16.1 | 0.00 | 2.72 | 1.80 | 53 | 1001.6 |
| 20260510123815 | 17 | 128 | 9.7 | 12.9 | 0.00 | 2.77 | 1.80 | 52 | 1001.6 |
| 20260510122914 | 18 | 118 | 8.0 | 12.9 | 0.00 | 2.77 | 1.80 | 51 | 1001.6 |
| 20260510122014 | 18 | 73 | 3.2 | 9.7 | 0.00 | 2.77 | 1.80 | 52 | 1001.6 |
| 20260510121115 | 17 | 135 | 8.0 | 11.3 | 0.00 | 2.77 | 1.80 | 52 | 1001.4 |
| 20260510120215 | 17 | 114 | 8.0 | 12.9 | 0.00 | 2.77 | 1.80 | 51 | 1001.4 |
| 20260510115315 | 17 | 135 | 4.8 | 9.7 | 0.00 | 2.77 | 1.80 | 51 | 1001.7 |
| 20260510114415 | 17 | 106 | 3.2 | 9.7 | 0.00 | 2.77 | 1.80 | 53 | 1001.6 |
| 20260510113514 | 17 | 112 | 4.8 | 9.7 | 0.00 | 2.77 | 1.80 | 59 | 1001.6 |
| 20260510112615 | 16 | 135 | 4.8 | 8.0 | 0.00 | 2.77 | 1.80 | 61 | 1001.5 |
| 20260510111714 | 17 | 95 | 4.8 | 4.8 | 0.00 | 2.77 | 1.80 | 60 | 1001.6 |
| 20260510110815 | 17 | 135 | 4.8 | 9.7 | 0.00 | 2.77 | 1.80 | 60 | 1001.5 |
| 20260510105915 | 17 | 120 | 4.8 | 9.7 | 0.00 | 2.77 | 1.80 | 62 | 1001.5 |
| 20260510105013 | 16 | 90 | 3.2 | 8.0 | 0.00 | 2.77 | 1.80 | 63 | 1001.5 |
| 20260510104114 | 16 | 135 | 3.2 | 4.8 | 0.00 | 2.77 | 1.80 | 63 | 1001.4 |
| 20260510103215 | 16 | 135 | 4.8 | 9.7 | 0.00 | 2.77 | 1.80 | 62 | 1001.5 |
| 20260510102315 | 16 | 126 | 3.2 | 4.8 | 0.00 | 2.77 | 1.80 | 62 | 1001.3 |
| 20260510101414 | 16 | 135 | 3.2 | 4.8 | 0.00 | 2.77 | 1.80 | 62 | 1001.4 |
| 20260510100515 | 16 | 74 | 3.2 | 8.0 | 0.03 | 2.77 | 1.80 | 62 | 1001.3 |
| 20260510095614 | 16 | 91 | 3.2 | 8.0 | 0.03 | 2.77 | 1.80 | 63 | 1001.5 |
| 20260510094715 | 16 | 135 | 4.8 | 9.7 | 0.03 | 2.77 | 1.80 | 65 | 1001.2 |
| 20260510093815 | 15 | 90 | 1.6 | 3.2 | 0.03 | 2.77 | 1.80 | 65 | 1001.0 |
| 20260510092915 | 15 | 119 | 4.8 | 12.9 | 0.03 | 2.77 | 1.80 | 65 | 1001.1 |
| 20260510092015 | 15 | 103 | 4.8 | 9.7 | 0.03 | 2.77 | 1.80 | 64 | 1001.2 |
| 20260510091114 | 15 | 40 | 4.8 | 9.7 | 0.03 | 2.77 | 1.80 | 63 | 1001.0 |
| 20260510090214 | 15 | 133 | 3.2 | 9.7 | 0.00 | 2.72 | 1.78 | 64 | 1001.0 |
| 20260510085314 | 15 | 111 | 3.2 | 4.8 | 0.00 | 2.72 | 1.78 | 65 | 1000.8 |
| 20260510084414 | 14 | 135 | 3.2 | 9.7 | 0.00 | 2.72 | 1.78 | 66 | 1001.0 |
| 20260510083514 | 14 | 135 | 4.8 | 9.7 | 0.00 | 2.72 | 1.78 | 65 | 1000.8 |
| 20260510082615 | 13 | 90 | 4.8 | 8.0 | 0.00 | 2.72 | 1.78 | 65 | 1000.9 |
| 20260510081714 | 13 | 90 | 1.6 | 4.8 | 0.00 | 2.72 | 1.78 | 66 | 1000.9 |
| 20260510080814 | 14 | 79 | 3.2 | 8.0 | 0.00 | 2.72 | 1.78 | 69 | 1000.8 |
| 20260510075914 | 14 | 53 | 1.6 | 4.8 | 0.00 | 2.72 | 1.78 | 70 | 1000.6 |
| 20260510075013 | 13 | 128 | 1.6 | 4.8 | 0.00 | 2.72 | 1.78 | 71 | 1000.6 |
| 20260510074115 | 13 | 45 | 3.2 | 4.8 | 0.00 | 2.72 | 1.78 | 73 | 1000.6 |
| 20260510073213 | 13 | 135 | 0.0 | 4.8 | 0.00 | 2.72 | 1.78 | 73 | 1000.4 |
| 20260510072314 | 13 | 45 | 3.2 | 4.8 | 0.00 | 2.72 | 1.78 | 74 | 1000.4 |
| 20260510071415 | 13 | 131 | 1.6 | 4.8 | 0.00 | 2.72 | 1.78 | 74 | 1000.6 |
| 20260510070515 | 12 | 123 | 3.2 | 4.8 | 0.00 | 2.72 | 1.78 | 75 | 1000.4 |
| 20260510065613 | 12 | 135 | 1.6 | 4.8 | 0.00 | 2.72 | 1.78 | 75 | 1000.4 |
| 20260510064713 | 12 | 124 | 0.0 | 4.8 | 0.00 | 2.72 | 1.78 | 76 | 1000.4 |
| 20260510063813 | 12 | 90 | 1.6 | 3.2 | 0.00 | 2.72 | 1.78 | 77 | 1000.2 |
| 20260510062914 | 12 | 90 | 1.6 | 3.2 | 0.00 | 2.72 | 1.78 | 77 | 1000.0 |
| 20260510062013 | 12 | 45 | 1.6 | 4.8 | 0.00 | 2.72 | 1.78 | 78 | 1000.3 |
| 20260510061115 | 12 | 90 | 3.2 | 4.8 | 0.00 | 2.72 | 1.78 | 81 | 1000.2 |
| 20260510060213 | 12 | 95 | 3.2 | 4.8 | 0.00 | 2.72 | 1.78 | 82 | 1000.1 |
| 20260510055315 | 12 | 90 | 0.0 | 1.6 | 0.03 | 2.72 | 1.78 | 81 | 1000.1 |
| 20260510054414 | 12 | 90 | 1.6 | 3.2 | 0.03 | 2.72 | 1.78 | 81 | 1000.0 |
| 20260510053514 | 12 | 135 | 1.6 | 4.8 | 0.03 | 2.72 | 1.78 | 82 | 1000.2 |
| 20260510052613 | 11 | 49 | 1.6 | 4.8 | 0.05 | 2.72 | 1.78 | 83 | 999.9 |
| 20260510051714 | 11 | 90 | 1.6 | 1.6 | 0.10 | 2.72 | 1.78 | 84 | 999.8 |
| 20260510050814 | 11 | 90 | 0.0 | 1.6 | 0.20 | 2.72 | 1.78 | 85 | 999.7 |
| 20260510045914 | 11 | 90 | 0.0 | 1.6 | 0.33 | 2.72 | 1.78 | 85 | 1000.0 |
| 20260510045014 | 11 | 90 | 0.0 | 1.6 | 0.30 | 2.69 | 1.75 | 86 | 999.9 |
| 20260510044115 | 12 | 90 | 0.0 | 0.0 | 0.33 | 2.69 | 1.75 | 85 | 1000.0 |
| 20260510043215 | 12 | 90 | 0.0 | 1.6 | 0.33 | 2.67 | 1.70 | 85 | 1000.1 |
| 20260510042314 | 12 | 45 | 0.0 | 1.6 | 0.38 | 2.67 | 1.70 | 85 | 1000.4 |
| 20260510041414 | 12 | 128 | 1.6 | 4.8 | 0.38 | 2.59 | 1.63 | 85 | 1000.3 |
| 20260510040514 | 12 | 90 | 1.6 | 1.6 | 0.51 | 2.46 | 1.50 | 84 | 1000.4 |
| 20260510035614 | 12 | 90 | 0.0 | 0.0 | 0.84 | 2.39 | 1.45 | 83 | 1000.4 |
| 20260510034714 | 12 | 90 | 0.0 | 1.6 | 0.94 | 2.36 | 1.42 | 83 | 1000.2 |
| 20260510033814 | 12 | 90 | 0.0 | 1.6 | 0.97 | 2.36 | 1.42 | 83 | 1000.3 |
| 20260510032914 | 12 | 90 | 0.0 | 3.2 | 0.94 | 2.34 | 1.37 | 83 | 1000.4 |
| 20260510032015 | 12 | 90 | 0.0 | 3.2 | 0.84 | 2.26 | 1.30 | 82 | 1000.5 |
| 20260510031115 | 12 | 90 | 1.6 | 8.0 | 0.69 | 2.11 | 1.14 | 82 | 1000.7 |
| 20260510030214 | 12 | 90 | 1.6 | 4.8 | 0.46 | 1.85 | 0.89 | 80 | 1000.5 |
| 20260510025315 | 12 | 122 | 1.6 | 4.8 | 0.13 | 1.52 | 0.56 | 77 | 1000.7 |
| 20260510024415 | 12 | 113 | 1.6 | 3.2 | 0.03 | 1.45 | 0.48 | 76 | 1000.7 |
| 20260510023515 | 12 | 90 | 3.2 | 4.8 | 0.00 | 1.42 | 0.46 | 75 | 1000.5 |
| 20260510022615 | 12 | 105 | 4.8 | 9.7 | 0.00 | 1.42 | 0.46 | 76 | 1000.5 |
| 20260510021715 | 12 | 92 | 3.2 | 9.7 | 0.00 | 1.42 | 0.46 | 75 | 1000.6 |
| 20260510020815 | 12 | 45 | 3.2 | 4.8 | 0.00 | 1.45 | 0.46 | 75 | 1000.5 |
| 20260510015914 | 12 | 96 | 3.2 | 8.0 | 0.00 | 1.45 | 0.46 | 76 | 1000.4 |
| 20260510015015 | 12 | 90 | 0.0 | 1.6 | 0.00 | 1.45 | 0.46 | 80 | 1000.5 |
| 20260510014115 | 12 | 125 | 1.6 | 3.2 | 0.00 | 1.45 | 0.46 | 77 | 1000.5 |
| 20260510013215 | 12 | 90 | 1.6 | 1.6 | 0.00 | 1.45 | 0.46 | 76 | 1000.4 |
| 20260510012314 | 12 | 90 | 1.6 | 3.2 | 0.00 | 1.45 | 0.46 | 75 | 1000.3 |
| 20260510011415 | 12 | 90 | 1.6 | 1.6 | 0.00 | 1.45 | 0.46 | 74 | 1000.5 |
| 20260510010515 | 12 | 73 | 1.6 | 4.8 | 0.00 | 1.45 | 0.46 | 74 | 1000.5 |
| 20260510005615 | 12 | 126 | 3.2 | 9.7 | 0.00 | 1.45 | 0.46 | 75 | 1000.5 |
| 20260510004714 | 12 | 128 | 1.6 | 3.2 | 0.00 | 1.45 | 0.46 | 75 | 1000.5 |
| 20260510003815 | 12 | 134 | 1.6 | 3.2 | 0.00 | 1.45 | 0.46 | 76 | 1000.8 |
| 20260510002915 | 12 | 135 | 3.2 | 9.7 | 0.00 | 1.45 | 0.46 | 77 | 1000.6 |
| 20260510002015 | 13 | 90 | 1.6 | 4.8 | 0.00 | 1.45 | 0.46 | 78 | 1000.8 |
| 20260510001114 | 13 | 90 | 0.0 | 1.6 | 0.00 | 1.45 | 0.46 | 79 | 1000.7 |
| 20260510000214 | 13 | 105 | 3.2 | 4.8 | 0.00 | 1.45 | 0.46 | 80 | 1000.7 |
| 20260509235313 | 13 | 135 | 3.2 | 4.8 | 0.00 | 1.45 | 0.46 | 80 | 1000.7 |
| 20260509234415 | 13 | 103 | 3.2 | 9.7 | 0.03 | 1.45 | 0.46 | 81 | 1000.8 |
| 20260509233515 | 13 | 91 | 1.6 | 4.8 | 0.05 | 1.45 | 0.46 | 80 | 1001.0 |
| 20260509232614 | 13 | 90 | 0.0 | 1.6 | 0.13 | 1.45 | 0.46 | 80 | 1000.8 |
| 20260509231714 | 13 | 90 | 0.0 | 1.6 | 0.15 | 1.45 | 0.46 | 80 | 1000.8 |
| 20260509230813 | 13 | 90 | 0.0 | 1.6 | 0.28 | 1.45 | 0.46 | 80 | 1001.1 |
| 20260509225914 | 13 | 117 | 1.6 | 4.8 | 0.00 | 1.45 | 0.46 | 80 | 1000.7 |